Theta_e
319 318 321 321 322 321 323 330 325 323 326 320 318 319 316 317 316 315 316 315 317 319 316 319 317 314 319 318 317 318 317 323 322 316 319 326 330 334 336 337 337 339 339 341 340 339 339 339 340 338 337 336 336 336 336 338 339 339 339 339 339 337 335 334 336 336 337 336 336 335 335 334 334 333 333 334 329 325 324 323 320 320 321 320 318 308 308 323 327 326 327 328 330 330 330 330 331
319 320 321 320 321 321 325 328 327 324 323 316 316 320 316 316 316 317 321 318 318 321 320 325 325 320 325 323 320 320 318 324 321 317 324 328 332 334 335 335 336 339 340 341 341 339 340 340 339 338 336 336 336 336 337 337 339 339 339 339 338 337 334 332 333 335 335 335 335 335 335 334 333 332 333 332 327 325 324 322 320 321 324 323 320 310 313 326 328 328 328 328 328 329 330 331 330
319 321 321 321 321 321 331 327 322 324 322 316 319 322 315 316 319 319 321 317 318 319 319 320 322 319 323 325 321 319 318 324 325 323 326 330 333 334 336 335 335 341 339 340 341 339 340 340 339 338 336 335 336 337 338 337 338 339 339 338 337 336 332 328 330 333 333 333 335 335 335 333 333 332 332 330 326 325 324 322 321 320 323 323 319 313 318 327 328 328 328 327 328 328 330 330 330
319 321 320 325 326 327 345 335 326 327 321 320 320 321 321 322 321 319 317 316 318 317 315 317 321 315 318 325 320 319 322 324 327 327 328 328 332 335 336 336 336 340 340 340 341 340 340 340 339 337 336 336 335 336 337 337 337 338 338 338 337 334 328 325 327 330 331 332 334 334 334 333 332 331 331 329 326 326 324 323 321 318 320 321 319 319 322 326 327 328 328 328 328 329 330 330 329
318 321 319 325 332 327 335 328 324 325 318 322 320 320 327 324 318 318 316 313 314 314 314 318 321 315 316 324 320 322 324 321 322 326 329 329 333 335 336 337 336 340 341 339 341 341 340 340 339 338 337 336 336 335 335 336 336 336 337 337 338 333 325 324 326 328 330 332 333 333 333 332 331 330 330 328 327 327 324 323 321 317 317 319 319 322 324 325 327 327 327 328 328 329 329 329 328
318 319 318 320 321 317 322 319 318 320 318 322 321 320 325 322 317 318 315 310 312 312 312 316 321 320 322 325 321 325 325 322 324 327 329 331 333 335 337 338 338 340 341 340 341 341 341 340 339 338 338 337 337 335 334 336 336 335 336 337 336 331 324 323 324 324 326 329 331 331 332 331 330 329 329 328 328 327 325 324 321 316 313 313 315 322 324 324 326 326 326 327 328 328 327 327 327
319 319 323 322 319 319 326 324 321 322 316 316 317 318 320 319 316 317 314 312 314 312 314 319 319 320 322 321 319 324 324 326 327 329 331 332 334 335 338 339 340 340 340 341 341 341 342 341 339 339 338 338 337 336 335 335 336 336 336 336 335 331 327 324 324 323 322 325 330 331 330 331 331 330 329 328 329 328 326 324 322 318 312 307 309 318 324 324 324 324 325 325 326 326 326 325 325
320 321 325 330 329 328 332 325 322 321 314 311 313 316 318 318 316 315 314 314 314 313 319 321 316 317 318 316 319 322 321 326 329 331 331 333 335 336 338 339 341 341 341 340 340 342 342 341 341 339 338 339 337 337 336 335 335 335 336 336 335 334 331 328 326 325 323 323 328 330 329 330 332 331 330 330 329 328 327 325 322 319 312 305 304 312 321 323 323 323 324 323 323 323 323 323 324
316 317 324 332 330 329 329 321 316 317 316 315 313 315 318 315 313 313 314 313 312 315 323 320 315 315 317 319 324 320 319 326 330 331 331 334 335 336 337 338 341 340 342 341 340 342 342 341 341 340 339 339 337 337 337 336 334 334 336 336 336 336 334 332 327 327 325 323 325 328 329 330 332 332 332 331 329 329 328 325 323 320 314 306 303 307 314 320 321 321 322 321 322 322 322 322 323
318 317 325 331 328 324 321 316 317 317 316 317 313 314 317 313 312 312 314 313 312 318 321 316 315 316 318 323 326 318 319 327 330 332 331 333 334 336 337 337 340 340 341 341 339 341 342 342 341 341 340 340 338 338 338 337 335 334 335 336 336 336 336 335 332 329 327 325 323 325 329 331 332 332 333 332 331 329 328 326 323 320 316 309 305 303 306 311 315 318 319 319 319 318 318 318 318
326 324 330 333 327 320 318 319 320 322 319 317 315 315 315 311 313 313 313 312 312 317 316 314 318 321 320 323 323 315 316 326 331 332 332 332 334 336 336 337 339 340 340 338 338 339 342 343 341 341 340 340 339 338 338 337 337 335 334 335 336 336 336 336 334 332 330 327 325 325 329 331 332 332 333 333 332 330 329 327 324 321 318 314 311 308 305 304 305 308 311 311 311 309 309 308 307
327 330 340 337 327 322 322 323 320 329 329 319 315 316 312 310 313 314 314 314 313 316 315 313 317 319 321 325 321 311 314 325 329 332 333 333 334 335 336 338 339 339 339 338 338 338 342 343 340 341 341 341 340 339 338 337 337 335 335 335 335 336 336 336 335 334 332 330 328 328 329 331 332 332 333 333 333 331 329 327 324 322 319 318 316 314 312 308 303 301 302 303 303 302 301 301 300
330 332 340 326 319 323 322 321 318 324 327 320 316 311 308 310 314 315 316 316 314 316 314 311 313 315 319 323 317 309 312 322 328 332 333 332 334 334 335 338 338 338 338 339 339 337 339 342 341 341 341 341 341 340 338 337 337 336 336 335 335 336 336 337 335 335 334 332 331 331 330 332 332 332 332 333 333 332 331 328 325 322 321 320 320 319 317 313 309 304 302 302 302 301 300 299 299
331 332 336 323 314 322 322 319 318 317 318 320 317 310 308 312 313 314 315 316 315 315 311 307 311 316 317 317 317 316 312 319 328 331 332 333 332 333 334 337 337 336 338 338 337 337 337 339 341 340 340 341 341 341 340 338 337 337 336 335 335 336 336 336 336 335 335 334 333 333 332 332 332 332 332 332 332 332 331 329 325 323 323 322 321 321 320 317 314 311 309 309 309 308 306 304 302
324 327 333 329 316 319 320 318 319 319 320 320 314 311 312 311 310 313 315 316 315 310 308 307 309 314 316 315 319 318 310 317 328 329 331 333 333 334 334 336 337 335 336 336 335 337 337 337 338 338 340 341 341 341 339 338 338 337 336 336 335 336 336 336 336 336 335 335 334 333 333 332 332 332 332 332 332 332 331 330 327 323 323 323 323 322 321 320 318 316 316 316 315 313 312 311 308
317 328 334 330 319 317 317 316 319 318 321 319 312 311 314 311 308 313 311 311 314 308 309 312 309 311 315 315 314 310 308 318 327 328 329 332 334 335 333 335 337 335 334 334 335 337 337 335 335 336 337 339 340 339 340 339 339 338 337 336 335 335 335 336 336 335 335 335 334 334 333 332 332 332 332 332 332 332 332 330 328 324 324 324 323 323 322 321 319 318 318 318 316 315 314 313 312
319 334 338 327 321 320 318 316 318 320 322 319 312 312 315 314 309 310 306 307 315 312 313 314 307 308 313 312 309 306 310 321 327 328 328 330 333 334 333 335 335 335 334 333 335 338 337 336 336 336 337 338 338 337 340 340 340 339 338 337 336 335 335 335 336 335 335 335 335 334 333 333 332 333 332 332 332 332 332 331 329 325 324 324 324 324 323 322 321 319 319 318 317 316 315 314 313
332 338 331 323 324 324 323 319 316 320 321 316 313 314 316 316 313 310 308 312 316 313 314 314 309 308 308 308 308 307 313 322 325 327 327 327 330 332 332 333 334 335 335 334 336 337 337 336 337 337 337 337 337 337 338 338 341 340 338 338 337 336 335 335 335 335 335 335 335 334 334 333 333 333 332 332 332 332 331 331 330 327 325 325 325 324 324 323 322 321 320 320 318 317 317 316 316
334 332 325 329 330 321 320 319 315 316 317 317 315 313 314 315 314 311 312 316 316 314 316 314 314 313 310 309 309 309 315 323 325 325 326 325 327 329 330 332 334 333 334 335 335 336 336 336 336 335 335 335 335 336 335 336 339 340 339 338 337 337 336 335 335 335 335 335 335 334 334 333 333 333 332 332 330 331 332 331 330 328 326 325 325 325 324 324 323 322 321 321 320 319 318 317 317
324 325 326 332 330 319 316 318 318 315 314 318 316 312 314 314 313 311 314 318 316 317 318 315 317 317 316 312 309 312 317 321 323 324 325 324 325 326 328 329 332 333 333 334 333 333 333 334 334 333 333 333 333 333 334 336 337 338 338 338 338 338 337 336 336 336 335 334 334 334 333 333 333 332 332 332 331 330 331 331 329 329 327 325 325 325 324 324 323 322 322 322 321 320 319 318 318
317 322 326 324 320 318 316 317 319 316 313 317 317 313 314 313 311 312 315 317 316 319 319 316 318 319 320 314 309 313 318 318 319 321 322 322 324 325 326 327 329 331 331 332 333 332 331 331 331 332 332 332 332 333 335 337 337 337 337 338 338 338 337 337 337 336 335 334 334 334 332 332 332 332 332 332 332 331 331 331 329 329 328 325 325 325 324 324 323 322 322 322 321 320 320 319 318
316 316 318 318 317 316 316 316 317 314 312 316 317 314 313 311 311 315 316 316 317 319 318 317 316 315 318 315 309 312 315 316 316 317 319 320 322 323 325 326 327 328 328 329 329 329 328 327 327 328 329 331 332 332 334 336 337 337 337 338 338 337 337 336 336 335 335 334 334 334 332 331 332 333 332 331 332 332 332 331 330 329 328 326 326 326 325 324 323 322 322 321 320 320 319 318 318
318 315 314 316 316 314 314 314 313 313 315 317 317 313 313 313 314 314 314 314 316 315 312 313 311 306 309 311 309 312 315 315 315 316 317 318 319 321 323 324 325 326 326 326 326 326 326 325 324 324 325 328 331 332 333 334 335 337 338 339 337 336 336 335 335 335 335 334 334 334 332 331 331 332 332 331 331 332 332 332 330 329 328 327 326 325 325 324 323 322 322 320 319 319 318 317 317
322 319 315 315 314 313 313 312 312 312 316 316 313 311 313 317 315 311 314 315 315 312 304 304 304 301 305 310 311 311 313 314 316 317 317 318 318 318 320 320 321 321 322 323 323 323 323 323 323 323 324 326 329 330 331 331 332 334 335 337 336 336 335 334 334 334 335 335 334 335 334 333 332 331 331 331 331 331 331 331 331 329 329 328 326 325 325 323 322 322 321 319 319 318 317 317 316
322 318 317 316 314 315 314 313 315 314 314 313 311 313 314 315 311 310 316 316 315 312 305 305 304 305 309 314 314 309 310 312 314 315 316 317 317 316 317 316 317 316 317 318 318 318 318 318 318 319 321 323 325 327 329 329 329 330 333 336 336 335 334 333 333 334 334 334 334 334 333 333 333 332 330 330 330 330 330 330 330 329 328 327 326 326 325 323 321 321 320 319 318 317 317 317 316
317 318 319 317 316 317 314 315 318 316 315 312 313 316 314 310 310 313 317 316 315 312 313 314 312 317 317 315 312 307 308 310 311 313 314 315 315 315 315 315 315 315 315 315 314 314 314 314 314 314 316 318 322 324 326 328 328 327 331 335 334 333 333 332 332 332 333 333 333 333 332 332 332 332 330 329 329 329 329 330 330 329 328 327 327 326 325 323 321 320 320 319 318 317 316 316 315
316 320 319 317 319 318 314 315 317 316 315 313 314 317 315 311 312 315 318 314 311 314 318 317 317 324 320 314 310 307 308 308 309 311 312 313 313 313 314 314 314 314 314 314 313 313 312 312 311 312 313 314 319 323 325 328 327 327 330 333 333 332 332 331 330 330 333 334 333 332 331 331 331 330 329 329 329 329 329 329 330 330 328 327 327 327 325 323 321 320 319 318 317 316 314 314 313
315 320 318 319 323 319 315 317 316 315 315 314 313 315 315 312 313 316 317 310 308 316 322 318 318 322 317 314 311 306 306 307 309 309 310 311 312 313 314 314 314 314 314 313 313 312 311 310 311 314 314 314 319 322 324 326 327 329 331 331 331 331 331 331 332 332 333 333 332 332 331 331 330 330 330 330 330 330 328 328 329 329 328 327 327 326 324 322 321 319 318 318 317 314 313 312 311
314 319 318 321 327 320 315 317 315 314 315 314 313 315 317 315 315 317 315 309 308 314 321 320 319 318 315 313 311 307 305 306 307 307 310 311 312 314 314 315 314 313 313 312 312 311 309 311 314 316 315 316 319 322 325 326 327 329 331 329 329 329 330 332 333 331 331 331 330 330 331 331 331 330 331 330 329 330 328 328 328 328 328 327 326 324 323 322 320 319 318 318 315 313 312 310 309
316 318 319 323 326 322 314 313 313 313 314 314 313 317 324 323 317 315 313 310 313 316 319 319 318 316 314 312 311 309 305 304 306 306 309 310 311 312 313 314 313 312 312 311 311 309 309 312 315 316 315 318 320 323 325 325 327 329 330 329 328 328 330 331 330 329 330 330 329 328 328 329 331 330 330 329 329 329 328 327 327 326 326 326 325 323 322 321 320 319 317 316 314 312 311 309 309
319 315 322 325 319 322 320 314 315 313 313 312 313 317 323 325 322 316 311 309 313 317 318 317 317 315 313 312 310 311 306 304 305 307 308 309 310 311 311 312 312 312 312 311 310 309 311 314 317 316 316 319 321 324 326 325 326 328 328 328 328 327 328 329 328 328 330 330 329 327 327 328 330 330 330 329 328 328 327 326 325 324 324 324 323 322 321 320 320 319 318 317 313 312 310 307 307
325 313 324 326 316 327 327 315 317 315 312 311 313 318 319 320 321 316 308 308 310 315 317 315 315 314 311 310 309 309 307 303 304 306 307 308 309 310 310 311 311 311 311 309 309 310 313 316 317 317 317 319 321 324 326 326 325 325 326 326 327 327 326 327 327 328 330 330 328 327 327 328 329 329 328 328 328 326 325 324 323 323 323 323 322 321 321 320 320 318 317 317 315 311 308 305 304
329 316 321 326 319 327 323 314 315 314 313 312 312 318 320 319 318 313 307 308 311 315 317 315 314 312 309 308 307 307 307 305 304 304 306 308 309 309 310 310 310 310 310 308 309 311 313 315 317 318 318 319 322 323 325 326 326 325 326 326 325 326 326 327 328 329 329 328 327 327 327 328 328 327 327 327 326 325 323 323 323 322 321 321 321 320 320 319 320 318 314 315 315 309 305 302 299
328 319 320 326 323 321 320 318 315 310 313 314 313 315 316 317 317 315 311 310 313 318 321 319 314 309 308 307 306 306 306 307 306 304 305 306 308 309 309 309 310 310 308 308 310 311 313 315 317 318 319 320 321 323 324 326 326 325 326 324 325 326 326 326 328 328 327 326 326 327 327 326 326 325 325 324 324 323 322 323 322 321 320 320 320 319 319 318 317 318 313 311 311 308 303 300 297
329 326 324 324 321 318 322 324 315 310 313 315 316 315 314 314 314 313 314 313 315 318 318 317 313 309 308 307 306 306 305 306 306 304 305 305 307 309 309 309 310 309 308 309 310 312 314 315 316 318 319 320 321 322 323 324 324 324 324 323 324 324 323 325 326 326 325 326 326 326 326 324 324 324 323 323 322 322 322 322 321 320 320 320 320 318 317 316 315 315 312 307 305 304 302 299 296
329 334 336 329 323 320 323 324 318 313 314 317 317 316 316 314 313 313 315 315 314 315 313 310 309 309 308 307 306 306 305 306 305 303 304 305 306 308 308 309 309 309 308 309 310 312 314 314 315 317 318 319 320 320 321 321 322 322 322 322 322 322 322 323 324 324 325 326 325 325 325 324 323 323 323 322 321 321 320 320 320 320 320 319 319 317 315 314 313 311 310 306 302 299 298 297 296
325 331 331 326 323 322 323 322 319 312 314 321 319 315 316 314 314 312 313 315 314 314 314 311 310 309 308 308 307 307 306 305 303 303 304 304 305 307 307 308 309 309 308 309 310 311 313 314 314 316 317 319 319 319 319 320 321 321 320 320 320 321 322 323 322 323 324 324 324 324 323 323 323 322 321 320 320 320 319 319 319 318 317 316 316 314 312 312 311 309 307 305 303 298 295 294 295
325 325 322 324 323 323 321 317 316 313 314 322 320 315 316 314 313 312 311 314 314 313 314 312 312 310 309 309 308 308 307 305 304 303 303 303 304 305 306 308 309 309 308 309 309 310 312 313 314 315 316 318 318 319 319 320 321 321 320 320 320 321 321 322 322 322 323 323 323 323 323 322 321 321 320 319 320 319 319 318 315 313 312 311 310 309 309 309 308 308 306 302 301 299 295 293 293
327 325 320 323 324 321 319 315 315 314 314 322 324 318 315 314 312 312 311 311 311 311 312 312 312 312 311 310 309 309 308 307 307 305 301 301 303 303 305 307 309 308 308 309 309 309 311 312 313 314 316 317 317 318 318 319 319 320 320 320 320 319 319 319 320 320 321 322 321 321 321 321 320 319 318 318 319 318 318 315 309 307 306 304 304 305 307 308 307 306 306 303 300 297 294 293 294
325 325 322 324 323 320 319 317 315 314 313 318 323 317 314 313 313 313 313 313 313 310 310 310 310 311 311 311 311 310 309 309 308 307 302 300 300 302 304 306 308 308 308 309 309 309 309 310 311 313 315 315 315 316 316 317 317 317 318 318 317 317 316 315 316 318 318 319 319 319 320 319 318 317 317 317 317 316 315 309 305 303 302 302 302 304 305 306 306 305 304 304 302 297 293 293 295
323 322 322 323 324 321 319 319 318 317 315 314 316 318 320 320 317 316 317 319 318 313 311 311 310 310 309 310 310 309 310 309 308 308 304 300 299 300 303 306 307 307 308 308 309 309 309 308 309 312 314 314 314 315 315 316 316 315 314 313 311 310 310 310 312 313 313 316 318 318 318 317 316 316 315 315 313 312 309 304 302 300 300 301 301 302 304 305 305 304 303 302 302 300 296 295 296
325 324 321 320 322 321 319 320 320 323 325 317 314 321 332 333 328 323 323 326 324 319 318 317 314 312 311 310 310 309 309 309 308 307 305 301 299 300 302 305 306 307 308 308 309 309 309 308 309 313 314 313 313 314 314 315 316 315 314 311 307 304 304 306 310 312 312 315 317 317 317 316 315 314 313 311 309 307 304 301 299 298 299 301 301 302 303 304 303 303 302 301 301 301 300 298 297
325 322 318 317 316 318 319 319 319 325 329 318 313 319 327 331 327 323 325 326 322 318 319 318 315 315 314 313 312 311 310 308 307 306 305 301 300 300 302 304 306 307 307 308 308 308 308 307 308 311 312 311 311 312 313 313 314 315 315 315 313 310 309 309 312 314 314 315 315 316 317 316 314 312 310 307 304 303 300 298 297 297 298 299 300 301 301 302 302 301 301 301 300 301 300 300 298
326 318 317 318 316 320 321 319 319 324 325 317 317 322 323 323 322 323 325 325 321 319 319 317 315 314 314 314 313 312 311 310 308 307 305 302 300 300 301 304 305 306 307 308 308 308 308 308 307 309 310 310 310 311 312 312 313 314 314 314 314 315 315 314 313 313 314 314 315 315 315 314 311 309 307 304 300 298 296 295 295 295 296 298 299 300 300 301 301 301 301 301 300 300 300 299 298
323 314 315 319 319 323 323 323 323 323 322 320 320 321 322 326 327 325 324 325 323 323 324 320 317 316 316 316 315 313 313 310 309 308 305 302 300 300 301 303 305 306 307 307 308 308 308 308 308 308 308 309 310 311 311 312 311 312 312 312 312 311 312 312 312 312 313 313 314 313 312 310 308 306 303 299 296 295 294 294 295 294 294 296 297 297 297 298 299 299 300 300 299 298 297 296 296
315 310 315 317 319 322 323 327 327 326 326 322 321 322 321 324 327 325 322 324 325 322 321 318 317 319 319 320 320 317 315 312 308 307 303 300 300 300 301 303 305 306 307 307 307 308 307 307 307 307 307 309 310 310 310 311 310 310 310 310 311 310 309 309 308 307 310 312 311 310 309 307 306 302 297 295 294 293 294 293 293 293 293 293 294 294 294 294 295 295 296 296 294 293 293 292 293
312 316 323 321 323 324 324 326 324 327 329 322 321 324 320 322 326 326 322 324 328 325 323 322 322 325 325 328 329 323 316 312 309 306 302 299 299 300 300 302 305 306 307 307 307 307 307 307 306 306 306 308 309 309 309 309 309 309 309 309 310 310 309 308 306 304 306 308 307 306 306 305 303 298 294 293 293 293 293 293 292 292 292 292 293 292 292 292 292 291 292 291 291 290 290 290 290
316 329 329 322 325 325 324 326 324 327 328 320 318 319 318 321 326 326 322 321 324 324 326 329 328 332 334 333 333 325 314 310 309 306 303 300 299 299 300 302 304 305 306 306 307 307 306 306 306 305 304 306 307 306 306 306 306 307 308 307 308 309 309 309 310 309 308 307 305 304 304 302 298 293 292 292 292 292 292 292 292 291 292 292 292 292 292 291 291 290 290 290 290 290 290 290 289
320 330 326 322 326 324 323 328 326 326 324 316 314 317 317 319 321 322 321 321 320 318 320 324 325 329 332 328 325 322 314 309 308 306 304 302 300 299 300 302 304 305 305 305 306 306 305 305 306 304 303 304 305 305 304 304 305 306 306 306 307 308 308 309 312 313 311 309 305 304 303 300 295 291 292 292 292 292 291 291 291 291 292 291 291 291 291 290 290 290 289 289 289 289 289 289 289
320 324 324 323 325 323 325 328 322 321 321 314 310 316 320 320 321 320 318 317 318 317 316 318 318 320 322 320 317 318 315 310 308 306 303 302 300 298 299 302 303 304 304 305 305 305 305 304 304 303 302 303 304 303 302 302 303 304 304 305 307 307 307 308 311 312 311 308 305 303 303 299 293 291 292 292 291 291 290 290 291 291 291 291 290 290 290 289 289 289 289 289 288 288 288 288 288
319 321 322 324 326 325 326 330 327 321 323 319 312 316 326 327 324 320 317 317 319 320 318 315 314 313 314 314 314 314 314 312 308 305 302 300 298 298 299 301 303 304 304 304 304 304 304 303 302 302 301 302 303 302 301 301 302 302 303 304 306 307 308 308 309 310 309 306 303 302 300 296 292 292 292 291 291 290 290 290 290 290 290 290 290 289 289 289 288 288 288 288 287 287 287 287 287
318 320 320 321 324 324 320 320 322 323 324 325 319 320 326 326 322 319 319 323 323 322 319 317 317 315 312 314 313 312 314 312 308 305 302 299 297 298 299 301 302 303 303 304 304 304 303 303 302 301 301 302 302 300 301 302 302 302 302 304 305 306 306 305 305 307 306 304 302 300 297 294 292 292 292 291 290 289 289 290 290 289 289 289 289 288 288 288 288 288 287 287 287 287 287 287 287
317 318 320 319 318 325 324 315 312 314 318 322 323 322 321 320 321 319 320 324 323 322 322 322 322 318 314 314 314 314 315 313 310 307 302 298 297 297 298 300 302 303 303 303 303 303 303 303 302 301 301 301 300 300 301 302 302 302 302 303 304 304 304 304 304 306 304 301 299 297 294 292 292 292 291 290 289 289 289 289 289 289 289 288 288 288 288 288 287 287 287 287 287 286 286 287 286
319 321 321 316 315 323 327 321 319 320 321 324 325 322 319 319 320 319 318 319 319 320 320 320 320 318 317 317 316 317 317 315 312 306 300 298 296 296 298 299 300 302 302 303 303 303 303 303 302 301 300 300 300 301 301 301 301 301 301 301 303 303 303 304 305 306 304 299 295 293 292 292 292 291 291 290 289 289 289 289 289 288 288 288 288 287 287 287 286 286 286 286 287 286 286 286 286
318 322 319 318 322 324 322 322 326 326 325 329 330 323 318 319 321 320 320 323 325 323 320 319 320 317 316 318 318 320 320 319 315 306 300 299 296 296 297 298 300 301 302 303 302 302 301 301 301 301 300 301 301 300 299 299 299 301 302 302 303 303 303 303 304 304 301 297 294 292 291 292 291 291 290 289 289 289 288 288 288 288 288 287 287 287 286 286 286 286 286 286 286 286 286 286 286
314 316 314 317 323 324 323 322 324 324 324 327 330 329 321 320 326 325 320 324 327 326 326 326 325 319 318 319 318 321 325 324 320 309 301 298 296 296 297 297 299 300 301 302 302 301 301 301 301 300 299 299 299 298 298 298 299 301 302 302 301 301 303 302 302 302 299 295 293 292 291 291 291 290 290 289 289 289 288 288 288 288 287 287 287 286 286 286 285 285 285 285 285 285 286 286 286
316 317 317 317 318 321 322 321 320 323 328 328 328 328 318 317 327 327 321 323 323 323 326 328 331 329 323 318 317 323 327 327 324 311 301 298 296 295 297 297 298 299 300 301 301 301 300 300 300 299 298 298 297 297 298 299 299 299 300 300 298 299 301 301 300 300 297 294 292 291 291 291 291 290 289 289 288 288 288 288 287 287 287 286 286 286 286 285 285 285 285 285 285 285 285 286 286
317 318 318 317 318 319 320 319 318 321 326 326 326 326 317 318 330 327 322 326 322 320 320 321 331 337 328 318 320 324 324 327 325 311 301 298 296 294 296 297 297 298 299 300 301 301 300 299 299 299 298 297 297 297 298 298 299 298 298 298 299 299 299 299 299 297 294 292 290 290 290 290 290 290 289 289 288 288 288 287 287 287 286 286 286 286 285 285 285 285 285 285 285 285 286 286 286
Wind_Speed
4 2 3 5 5 5 5 5 3 2 3 2 1 0 2 2 0 2 3 2 1 2 2 1 1 3 3 2 3 4 3 2 3 2 1 1 3 5 8 7 6 10 14 14 14 13 14 14 12 12 12 13 12 13 15 14 14 13 14 13 13 13 12 13 13 14 14 14 15 15 15 15 15 15 15 16 17 17 18 19 20 21 20 19 18 19 19 19 20 20 20 20 19 18 18 18 17
3 2 5 8 6 4 1 3 3 2 4 2 2 2 2 1 1 3 5 3 2 1 1 2 3 3 4 4 2 2 2 1 2 1 0 3 4 3 5 8 9 11 13 13 13 14 14 14 13 12 12 13 13 14 15 14 14 13 14 13 12 12 11 11 13 14 13 13 14 14 14 15 14 14 14 15 17 17 18 19 21 20 19 19 18 19 19 20 22 22 22 21 20 20 19 18 18
3 3 6 7 7 5 2 3 2 1 3 2 3 2 1 1 3 5 5 4 4 2 1 1 2 2 3 3 1 1 1 1 1 1 1 3 3 2 2 8 12 13 13 12 13 14 14 13 14 13 12 13 13 14 14 13 14 13 13 12 11 10 9 10 12 14 14 14 13 14 14 14 13 13 14 15 16 17 18 19 20 20 18 19 19 19 20 21 22 22 22 22 21 21 20 19 18
3 2 4 4 4 4 3 3 2 3 2 2 2 3 2 3 5 5 4 4 3 1 2 0 1 1 1 1 1 0 0 1 1 0 1 2 3 2 2 9 14 15 13 12 13 13 13 13 13 14 13 13 12 13 14 13 13 13 12 11 11 9 9 10 12 13 14 14 13 13 13 13 13 13 13 14 16 17 18 19 20 19 19 19 19 20 20 21 22 22 22 22 22 21 20 19 18
6 6 4 4 3 2 3 3 2 3 1 3 2 3 4 4 4 4 3 1 2 1 1 1 1 0 1 1 1 1 1 2 1 0 1 2 4 3 3 10 14 14 15 13 13 14 14 14 13 13 13 12 11 13 14 14 13 12 11 11 10 9 10 11 12 13 14 14 13 13 12 12 13 13 13 14 16 17 19 19 19 18 19 20 20 20 20 21 22 22 23 23 22 21 20 19 19
9 12 11 10 5 1 3 2 2 1 3 4 2 3 4 5 5 4 1 3 3 2 1 0 0 1 1 0 1 2 1 2 1 1 2 3 4 5 5 10 13 13 15 14 13 14 14 16 15 13 13 12 11 12 13 13 13 12 11 11 10 10 11 12 12 12 13 13 13 12 12 12 12 12 12 14 15 17 19 19 18 18 19 20 20 21 21 21 22 22 22 22 21 20 20 19 19
5 7 8 9 4 1 3 2 3 1 2 3 1 3 4 5 4 4 1 2 1 0 1 1 0 2 0 0 1 2 2 1 2 3 2 4 5 6 7 9 12 12 14 15 13 12 13 15 16 15 13 12 11 11 12 12 12 12 12 11 10 10 11 12 12 12 12 12 13 13 12 12 12 12 13 14 15 16 18 18 18 19 19 20 21 21 22 22 21 22 22 22 21 20 19 18 18
5 2 2 5 3 3 4 2 3 1 0 2 3 3 3 5 4 5 4 2 1 1 0 1 0 1 1 1 1 2 2 1 2 3 2 4 6 7 8 9 10 11 12 13 13 12 11 13 16 17 15 13 12 12 12 11 12 12 12 12 11 10 10 10 11 11 11 11 12 13 12 11 12 12 13 13 14 15 17 18 18 19 19 20 21 22 22 22 21 22 22 21 21 20 19 18 18
8 4 1 4 3 3 2 1 1 2 2 3 3 4 2 4 4 4 4 2 2 1 1 2 1 1 1 1 1 2 3 3 3 4 3 4 6 8 10 10 9 10 10 11 14 12 10 10 13 16 15 14 13 12 12 12 12 12 12 12 11 10 10 9 9 10 10 10 11 13 12 11 11 12 12 12 13 14 16 17 18 19 19 20 21 22 22 22 21 21 21 21 21 20 19 18 18
6 4 2 3 3 2 2 0 1 1 3 4 4 5 3 4 3 2 4 2 1 2 2 1 1 0 1 1 2 1 4 6 5 5 4 5 7 8 11 11 8 9 10 11 14 12 8 8 7 11 14 14 14 13 13 13 12 13 12 12 11 11 10 9 9 9 9 9 10 13 12 11 11 11 11 11 12 13 15 16 17 19 19 20 21 21 21 21 21 21 21 21 21 20 19 19 18
4 4 3 4 3 2 2 3 3 2 4 3 3 5 4 5 4 2 2 1 1 1 2 1 1 2 1 2 2 2 5 8 7 7 5 6 8 9 11 11 9 9 10 10 14 13 8 7 6 7 11 13 13 13 13 12 12 13 12 11 11 11 10 9 9 9 9 9 10 12 12 11 10 10 11 11 11 12 14 15 16 18 19 20 21 22 22 21 21 21 21 21 21 20 20 19 19
3 2 4 4 2 2 3 3 3 4 5 2 2 3 3 5 4 3 3 3 2 1 3 3 2 2 2 3 2 1 4 8 8 9 7 6 7 9 10 11 11 11 10 9 12 14 10 8 9 9 10 13 13 13 13 13 13 13 12 12 11 11 10 10 9 9 9 8 9 11 11 10 10 9 10 10 10 12 13 15 16 18 19 20 22 22 22 22 21 21 22 22 21 21 20 20 20
3 2 5 3 2 2 2 4 2 3 4 2 3 1 3 5 3 5 5 3 3 3 4 5 2 2 1 3 2 2 4 9 9 9 9 7 7 9 10 11 12 11 11 10 11 13 13 10 9 10 11 12 13 13 13 14 14 13 13 12 12 11 11 10 9 9 9 8 9 10 10 10 10 9 9 10 10 11 12 14 15 17 19 20 21 22 22 22 21 21 22 22 21 21 21 21 20
3 3 5 3 1 2 3 2 1 2 3 4 2 2 3 3 3 4 6 4 5 5 1 2 4 2 2 2 2 3 5 11 11 10 10 9 8 8 10 12 13 11 10 11 11 11 13 13 9 8 10 10 11 11 11 13 14 13 13 13 12 12 11 11 10 10 9 9 9 9 10 10 9 9 9 9 10 10 11 13 14 16 17 19 20 21 22 22 22 21 21 21 22 22 21 21 21
4 2 4 4 1 0 3 1 2 4 4 3 2 3 3 1 2 4 5 5 5 3 1 1 3 2 2 3 3 3 6 13 12 11 11 11 9 9 10 11 12 12 10 10 10 9 12 13 12 11 10 9 10 8 10 13 14 13 13 13 12 12 11 11 10 10 10 9 9 9 10 10 10 9 9 9 9 10 11 12 14 15 16 17 19 20 21 21 22 21 21 21 22 22 22 22 21
3 4 5 3 2 2 4 2 2 3 4 4 1 2 4 1 2 3 3 2 1 1 1 2 2 1 2 4 3 3 7 14 13 12 12 12 11 11 11 11 12 13 12 10 9 9 10 10 10 12 11 10 10 9 10 12 13 14 14 13 12 12 12 11 11 10 10 9 9 8 9 9 10 9 10 9 9 10 10 11 13 15 16 16 17 18 19 20 21 21 21 21 21 22 23 23 23
3 4 5 2 3 3 5 4 4 4 4 4 3 3 6 1 1 2 1 2 3 0 2 2 2 2 3 3 3 2 10 14 14 13 13 13 13 13 13 13 13 14 13 12 11 10 10 9 9 11 12 12 11 11 10 10 11 14 14 14 13 13 13 12 11 11 10 10 9 9 9 9 9 9 10 10 9 9 10 11 12 14 15 15 16 17 18 19 19 20 21 21 21 21 23 24 24
4 3 4 2 3 4 6 7 7 4 2 4 4 3 6 3 2 2 1 3 2 1 3 3 3 5 6 4 2 5 13 14 14 15 14 15 14 13 14 14 14 15 14 13 13 12 11 11 11 11 11 13 13 13 11 10 11 13 14 14 14 14 14 13 12 12 11 11 10 10 9 9 9 10 10 10 10 10 9 10 11 12 14 15 15 16 17 17 18 19 20 20 20 20 21 23 25
4 3 3 3 5 5 5 7 6 2 1 4 3 1 3 5 4 3 2 2 3 1 4 3 4 6 5 5 4 8 14 15 15 16 16 16 16 15 15 15 15 15 15 16 15 13 12 12 11 10 10 11 14 14 12 12 12 13 14 14 14 15 15 14 13 13 12 11 10 10 10 10 10 10 11 10 10 10 9 10 11 11 12 14 14 15 16 16 17 17 18 19 19 19 21 23 25
2 4 2 5 6 4 4 6 6 4 3 6 4 1 1 3 3 3 3 1 0 4 5 2 5 8 6 6 7 11 14 15 15 16 16 17 17 18 18 18 18 16 16 17 16 14 13 13 12 11 10 10 11 12 12 14 16 16 15 15 15 15 15 15 14 13 13 12 12 11 11 11 11 11 12 11 10 10 10 11 13 11 11 13 13 13 14 14 15 17 17 17 17 17 20 23 23
2 3 3 4 3 1 3 6 5 4 4 5 5 3 1 3 2 2 5 3 3 6 7 8 10 9 7 6 8 13 15 14 15 16 16 17 18 19 19 21 21 19 17 17 18 18 17 17 16 15 13 10 10 11 11 13 17 18 16 16 18 17 16 15 15 14 14 13 12 12 12 11 11 10 11 12 12 11 12 13 14 12 12 14 13 12 13 13 14 15 16 15 16 16 18 20 20
3 1 3 4 3 2 1 5 4 4 3 5 6 5 3 2 2 3 7 6 6 6 6 8 9 6 7 9 11 13 14 15 15 17 18 18 18 19 20 20 21 21 20 19 20 20 20 21 22 21 18 15 12 13 13 11 12 15 15 16 18 17 15 15 15 15 14 13 12 13 13 12 13 12 11 13 14 14 14 14 14 15 15 15 14 12 13 12 13 14 14 16 18 18 18 19 19
3 1 1 3 2 1 1 1 2 3 5 6 5 4 3 3 1 2 6 9 7 4 3 5 6 5 7 11 13 11 12 15 18 21 21 20 20 20 20 20 20 20 20 20 20 20 20 21 21 21 20 20 17 16 16 14 11 12 14 16 17 16 15 15 14 13 12 12 13 14 12 11 12 14 12 12 14 14 15 17 17 16 16 16 14 13 14 14 14 14 15 18 20 20 20 21 21
5 1 2 1 2 1 1 0 2 2 5 5 3 2 3 4 3 1 4 12 7 3 3 3 5 5 7 9 11 12 14 17 20 22 22 21 21 20 19 18 18 19 19 19 19 19 19 19 19 19 19 21 22 20 18 17 16 14 13 16 17 17 16 16 15 14 13 12 14 14 11 10 11 13 11 11 12 12 14 19 19 17 17 17 16 15 15 15 15 16 17 20 21 21 21 21 20
5 2 2 1 1 3 1 3 3 2 1 1 2 3 2 4 3 0 8 12 6 2 1 0 1 4 7 8 9 11 12 16 18 18 20 20 20 18 18 18 18 18 18 18 17 17 18 18 19 20 20 21 23 23 21 20 20 19 15 16 18 16 14 15 16 16 16 14 14 13 12 11 11 11 11 10 11 11 14 19 20 19 18 18 17 15 14 15 17 18 20 22 22 22 22 20 19
1 3 2 2 1 4 1 3 4 2 1 1 2 1 3 2 1 4 10 8 2 1 2 2 3 5 6 7 8 10 10 14 17 17 19 19 19 19 20 19 19 19 18 17 17 17 17 18 20 21 22 22 21 22 22 20 20 20 19 18 20 19 15 14 14 17 19 18 17 16 14 14 13 12 11 11 11 12 15 18 19 19 19 18 18 16 14 16 18 20 21 22 23 23 22 20 19
2 3 2 3 2 3 2 2 2 2 1 1 3 3 4 2 1 5 5 2 1 2 1 1 2 4 6 5 6 9 10 13 16 16 17 17 20 22 21 21 21 19 18 17 17 17 16 18 19 19 20 21 21 21 22 20 18 18 19 20 23 24 19 16 17 19 20 21 19 17 17 16 14 12 12 13 13 15 16 16 16 17 18 18 17 16 16 18 20 22 22 23 24 24 23 21 20
2 3 3 4 5 3 4 2 2 2 1 2 3 1 4 4 1 8 4 3 2 2 3 2 2 4 4 5 5 7 9 12 14 15 18 20 23 24 23 23 22 20 18 17 16 16 15 14 13 12 15 19 20 21 21 21 19 18 18 17 19 21 20 20 20 18 18 17 13 13 15 16 15 14 14 15 16 16 15 14 15 16 18 18 16 15 18 19 20 22 23 23 24 25 25 23 22
1 3 2 5 7 4 3 2 3 2 1 3 3 1 5 2 8 9 2 2 2 1 5 4 4 5 4 5 4 5 9 11 13 17 21 22 22 23 24 23 21 20 18 16 15 15 13 10 9 9 11 17 20 21 20 20 20 21 21 16 13 16 20 22 21 18 17 15 12 11 12 14 16 17 16 18 17 16 15 15 15 16 17 17 15 16 19 21 22 23 23 23 24 25 26 25 23
1 3 2 3 6 4 3 2 2 1 2 1 1 2 6 8 13 8 2 1 1 2 6 5 5 5 4 5 4 5 8 12 15 19 22 20 20 21 22 22 20 19 18 16 15 14 12 9 9 9 10 15 19 20 21 20 20 21 22 19 16 16 19 19 19 20 20 18 15 13 11 12 14 15 15 16 17 16 16 16 15 15 15 15 16 18 21 23 23 24 24 24 24 24 24 24 23
1 2 2 2 1 4 5 1 2 4 1 2 2 3 6 9 12 7 3 1 3 5 7 5 6 5 5 5 5 6 8 14 17 19 21 20 20 20 21 21 20 19 18 16 15 13 10 10 10 10 12 16 18 20 22 21 20 17 16 18 19 18 18 19 20 21 22 20 17 14 14 16 16 14 13 14 15 15 15 16 15 15 16 16 18 21 23 24 23 23 22 22 23 23 24 25 24
3 1 2 3 1 4 7 2 3 3 1 3 3 3 6 9 10 5 3 1 4 7 8 6 7 7 6 5 5 6 7 13 17 19 21 21 22 21 21 21 20 19 17 16 14 12 11 11 11 12 13 17 19 21 23 23 23 21 18 17 18 17 18 20 20 20 21 20 18 15 16 18 17 17 17 16 16 15 15 15 15 16 19 20 20 22 23 22 21 22 21 18 21 25 26 27 26
4 1 2 1 1 3 5 2 2 1 1 1 1 3 4 5 6 4 2 3 4 5 9 8 8 8 7 5 5 6 6 9 14 21 24 23 23 23 22 21 20 19 16 15 14 14 14 13 13 14 15 17 19 21 23 22 23 24 21 17 16 15 18 20 20 20 19 19 17 15 17 19 17 18 20 19 16 16 15 16 18 19 22 23 22 22 20 19 19 21 24 20 21 27 30 30 30
4 2 1 3 2 2 3 2 2 2 2 2 2 4 8 7 7 6 2 4 4 5 10 10 8 7 6 6 6 7 7 7 11 20 24 25 25 24 22 21 20 18 15 15 15 15 16 15 16 17 17 18 20 22 23 22 22 22 20 20 19 19 19 19 20 20 20 18 16 16 18 20 19 19 19 16 15 15 15 18 21 22 23 22 20 20 19 20 20 22 26 26 25 29 32 33 32
3 2 1 2 2 3 3 3 2 1 2 3 3 5 12 13 11 10 5 5 5 8 9 8 8 8 7 7 8 9 9 10 14 18 21 25 26 25 24 22 20 18 16 16 16 17 17 17 18 19 19 20 22 23 24 24 23 22 22 23 22 21 20 20 21 21 20 18 17 17 18 19 22 22 19 16 15 15 17 21 23 22 20 18 19 20 22 24 24 25 28 31 31 31 31 33 33
6 5 4 3 3 3 5 5 4 2 1 5 7 8 13 14 12 11 7 4 5 9 8 8 9 8 8 8 9 10 10 12 14 14 18 23 26 27 25 24 22 20 18 18 18 19 19 19 20 21 22 22 23 25 25 25 25 23 23 23 22 21 20 21 22 21 21 20 18 17 17 18 20 21 20 17 16 15 19 21 21 21 19 19 22 24 25 26 27 29 30 33 35 34 32 32 31
7 5 4 3 3 4 5 3 5 1 2 6 7 7 13 14 12 13 7 2 5 9 10 11 10 10 9 10 11 11 12 11 9 11 17 21 24 27 27 26 24 21 19 20 20 21 21 21 22 24 25 24 24 26 26 26 26 25 24 24 24 22 22 22 22 22 21 20 19 17 18 18 19 21 18 16 16 17 19 21 21 22 21 22 24 25 27 28 29 30 32 34 35 36 35 32 31
6 5 2 1 3 6 5 2 4 1 3 6 4 5 13 14 13 13 7 4 8 11 12 13 13 12 10 10 13 13 10 8 6 9 16 20 24 27 28 28 27 24 22 22 22 22 23 23 24 25 26 25 25 26 25 25 26 26 26 26 25 24 24 24 24 22 21 20 19 18 18 18 20 19 16 16 18 19 20 22 23 24 24 25 26 27 29 30 31 32 35 35 34 35 35 33 31
4 3 3 2 3 4 5 3 4 1 3 4 4 5 11 13 12 14 12 10 11 12 13 14 13 12 11 11 13 12 10 8 7 8 13 20 23 25 27 28 28 25 23 23 23 23 24 25 26 26 26 26 26 26 26 26 26 26 26 26 26 26 25 25 24 23 22 21 20 20 19 18 18 16 15 19 22 21 21 23 24 25 25 26 27 30 31 32 33 33 34 34 34 34 32 32 27
2 4 3 2 2 1 3 4 4 1 2 2 4 6 9 10 10 14 14 9 10 11 12 13 11 12 15 14 11 10 11 11 10 8 10 16 20 23 27 27 26 24 23 24 25 25 26 26 26 27 27 27 27 27 27 27 27 26 25 25 26 26 25 24 23 23 24 22 20 21 20 19 18 17 19 23 23 23 23 24 25 25 26 27 27 31 33 33 34 34 32 30 32 33 32 29 20
2 4 6 4 4 5 4 4 3 2 3 2 3 7 7 6 8 12 8 3 7 10 9 12 12 13 15 13 11 11 12 11 11 10 9 13 20 25 27 27 27 26 27 28 28 28 27 26 26 28 28 28 29 28 29 29 27 25 25 25 24 23 23 23 23 24 24 22 21 22 22 20 19 20 23 24 24 25 25 25 26 26 28 28 28 30 33 33 33 33 30 28 29 29 31 28 17
4 5 9 9 7 6 3 3 5 4 4 2 1 4 6 4 5 10 5 4 8 7 6 12 12 11 11 10 13 12 11 11 10 10 9 14 20 24 26 27 29 29 30 31 31 29 27 26 28 29 29 30 30 30 30 29 28 27 28 28 25 22 22 24 25 25 24 23 22 23 23 21 20 23 25 26 26 26 26 26 26 27 28 29 29 29 31 32 32 30 27 26 26 25 28 28 21
3 4 7 9 6 4 3 1 2 1 4 3 2 1 6 5 4 8 6 7 13 9 10 14 11 10 10 9 11 10 9 9 8 7 9 13 18 22 25 29 31 31 30 29 29 29 27 26 28 30 31 31 31 31 30 29 29 30 31 30 28 26 26 27 26 25 24 24 24 25 25 23 24 26 27 27 27 27 27 27 27 27 28 28 29 29 30 30 29 27 26 25 24 24 26 27 25
3 3 3 6 7 6 5 4 3 3 3 3 3 4 4 7 6 7 5 8 13 12 14 15 10 11 11 10 11 10 9 8 7 8 8 11 18 23 27 30 31 30 28 28 29 29 29 28 29 31 31 32 32 32 31 31 31 31 30 30 29 29 30 30 28 26 25 25 25 26 26 26 27 28 28 28 28 28 28 27 27 27 27 28 29 28 28 28 27 27 26 24 23 23 23 23 25
4 2 5 6 6 5 5 5 3 1 4 4 3 5 2 8 6 3 2 5 10 12 14 15 11 10 10 10 11 10 8 7 7 8 9 11 18 24 27 28 28 28 28 29 31 31 31 30 30 31 31 32 33 33 32 32 32 31 30 29 30 29 29 30 29 28 28 27 27 27 27 28 29 29 29 29 29 29 28 27 27 27 27 28 28 27 26 26 26 26 26 25 23 23 22 20 22
3 6 7 6 6 5 5 4 2 3 3 4 6 7 3 6 6 1 1 3 8 11 12 12 10 8 8 9 9 7 5 5 6 7 8 12 18 23 25 25 26 28 29 30 31 31 31 31 31 31 31 32 34 33 33 32 31 31 30 30 31 30 28 29 29 29 30 29 29 29 29 30 30 30 31 30 30 30 28 27 27 27 27 27 27 26 26 26 25 25 24 24 23 22 22 20 20
6 6 6 6 5 4 4 2 4 3 5 4 7 10 5 4 5 3 4 4 6 8 7 9 8 7 8 8 6 5 4 3 4 4 5 10 15 20 22 23 26 28 29 30 31 32 32 32 32 33 33 34 34 34 33 33 32 31 31 32 32 32 31 32 32 31 31 31 31 31 31 32 31 32 32 32 31 29 29 28 28 28 27 26 26 26 26 26 25 25 24 23 23 22 22 21 20
6 4 4 4 3 4 4 3 3 2 5 3 2 5 3 5 7 4 6 7 6 7 6 8 9 8 8 6 4 4 3 3 3 3 4 6 9 15 20 22 25 27 29 31 32 33 33 34 34 33 33 35 35 35 34 33 33 33 33 32 32 33 34 34 33 32 32 33 33 33 33 33 33 33 33 32 31 30 29 29 28 28 27 26 26 26 26 26 25 25 24 23 23 22 21 21 21
4 5 5 4 2 3 2 3 0 3 7 2 2 1 2 8 8 8 11 13 11 9 8 10 10 9 9 7 5 3 2 3 3 4 5 6 7 12 19 22 24 26 29 30 32 33 34 35 35 33 33 35 35 35 35 34 34 34 34 33 33 34 34 34 32 31 34 35 35 36 36 36 36 36 35 34 32 31 30 30 29 28 27 26 26 26 26 26 25 25 24 23 23 22 21 20 19
5 6 6 4 2 1 4 4 1 4 6 3 3 3 3 6 6 11 18 18 13 9 9 11 10 11 12 8 4 2 2 3 4 4 6 6 8 13 18 22 24 26 28 30 31 33 33 33 35 33 33 34 35 35 35 34 34 34 34 34 34 34 34 33 31 31 35 36 36 37 38 39 39 38 37 35 33 32 31 30 29 27 27 26 26 26 26 25 24 24 23 22 22 21 20 19 18
5 4 5 5 5 5 5 3 3 5 4 3 2 2 4 4 3 8 13 13 10 7 9 9 9 11 10 8 6 3 4 5 4 6 7 8 10 15 18 21 24 26 28 30 31 32 33 33 34 34 34 35 35 35 35 35 35 35 34 35 35 35 33 32 31 31 35 37 37 38 40 41 40 38 36 35 33 32 31 30 28 27 26 26 25 25 25 25 24 23 22 22 21 20 19 18 17
2 3 4 4 5 5 1 3 5 3 2 3 2 4 5 5 6 8 7 8 8 7 8 7 10 12 8 8 8 5 6 6 5 7 8 8 11 15 18 21 23 26 28 31 32 34 34 34 35 35 35 36 36 35 35 36 36 36 35 36 36 35 33 32 32 32 35 38 38 40 42 41 39 37 36 35 33 32 31 30 28 27 26 26 25 25 24 24 23 23 22 22 21 20 19 17 17
2 3 4 4 4 6 3 2 1 4 2 4 2 5 6 3 7 10 8 9 9 8 9 9 11 11 7 8 7 5 6 6 6 8 7 7 10 15 19 22 24 27 29 32 34 35 37 37 37 36 35 35 36 36 36 36 36 36 36 37 36 35 34 33 32 32 35 38 39 41 42 41 39 37 36 35 34 32 31 30 29 27 27 26 25 25 24 24 23 22 22 21 21 21 19 18 17
6 4 6 3 2 3 3 2 1 3 4 5 2 6 6 3 6 5 2 7 10 11 12 11 11 10 7 9 8 5 6 6 7 7 6 7 11 15 19 22 25 27 30 32 33 34 35 36 37 36 35 36 37 37 36 36 36 37 36 37 37 36 35 34 31 31 36 40 41 42 43 41 39 38 37 36 34 33 31 30 29 28 28 27 26 25 24 23 22 22 21 20 20 20 19 18 17
5 4 4 4 2 2 2 3 3 2 3 4 4 6 5 5 6 3 3 8 11 13 12 10 12 11 8 11 9 5 4 5 6 6 6 7 10 15 19 21 24 26 28 29 30 31 33 34 35 36 36 37 37 36 35 35 35 37 37 37 37 36 35 34 32 33 37 41 43 43 43 41 40 39 38 37 35 34 32 30 29 29 29 28 27 26 24 23 22 21 20 19 18 18 17 17 16
3 1 2 2 2 4 3 3 4 3 3 3 4 5 5 7 7 6 9 11 11 11 9 9 12 11 10 10 8 4 5 6 6 6 7 6 9 15 19 22 24 26 27 27 28 30 32 33 34 35 34 35 35 35 34 34 35 36 37 37 37 36 36 34 34 35 38 42 43 44 43 42 41 40 38 37 36 34 33 31 30 30 29 29 28 26 24 22 21 20 19 18 17 16 15 15 15
4 3 4 3 1 2 1 1 2 3 3 2 2 5 10 8 6 8 11 11 11 11 9 10 9 9 10 8 6 5 5 6 6 6 6 6 8 14 18 21 23 24 25 26 28 31 32 34 35 35 34 34 35 35 35 36 36 37 37 37 38 37 36 35 34 36 39 41 43 44 43 43 41 40 39 38 36 35 33 32 31 30 30 29 27 26 24 23 22 20 19 18 17 16 14 13 13
9 8 9 10 7 5 3 3 1 2 3 4 3 4 13 8 5 8 10 8 9 9 8 9 8 9 9 6 5 6 6 6 6 5 5 5 8 13 16 19 21 23 26 28 29 31 32 33 35 35 35 35 37 37 37 37 37 37 37 37 38 37 36 35 35 36 39 41 43 44 43 43 42 40 39 38 37 35 33 32 31 30 29 28 27 26 25 23 22 21 20 18 17 16 14 13 12
Wind_Direction
340 6 79 89 122 124 60 54 83 344 73 76 309 144 233 225 336 267 256 255 245 255 212 129 135 136 116 133 183 169 138 148 168 144 203 174 109 157 171 156 152 164 161 156 152 146 141 142 140 138 137 135 135 131 128 129 127 127 124 119 116 114 115 113 111 107 102 98 95 92 89 88 84 81 80 78 73 65 62 59 59 58 54 53 54 57 63 66 67 70 75 78 79 80 81 81 80
351 58 95 88 77 114 103 49 99 342 56 98 257 180 256 313 341 226 216 226 213 234 100 122 121 100 85 102 123 126 102 317 196 208 335 109 109 142 171 163 158 166 163 158 155 150 148 146 142 140 140 139 141 133 128 131 131 129 126 121 118 117 118 118 115 112 108 103 99 95 91 89 86 83 81 78 73 66 64 63 62 59 55 56 57 60 66 68 69 71 73 75 78 81 82 81 80
16 102 112 93 55 63 92 39 87 58 80 159 254 233 246 164 224 229 218 221 185 136 68 118 113 79 48 69 89 93 76 313 227 285 12 123 123 108 177 170 163 168 168 163 162 158 151 149 145 141 141 142 143 136 130 133 134 131 128 124 121 120 119 122 121 119 116 109 102 98 94 90 87 86 84 80 73 69 68 65 64 60 57 60 60 63 70 71 71 73 73 75 79 82 82 81 80
26 103 117 108 56 40 63 38 106 121 111 191 248 244 218 187 213 234 240 222 180 76 15 40 84 64 48 72 160 144 87 166 176 315 117 137 134 118 172 165 163 169 171 172 170 163 154 153 150 144 142 143 142 137 134 135 137 135 132 129 124 121 123 125 124 125 123 113 106 103 98 94 91 89 88 82 74 71 70 67 65 63 61 62 63 67 71 72 73 74 75 77 80 81 81 81 81
60 86 90 98 86 45 90 72 100 103 182 181 178 245 232 204 187 205 258 266 235 290 1 86 82 261 92 129 150 149 179 146 150 75 138 145 139 137 145 152 158 167 172 177 173 166 161 159 154 146 143 144 142 139 138 137 137 138 135 132 126 124 127 125 123 126 125 117 111 107 103 100 95 93 92 84 75 73 70 68 67 66 66 66 66 69 72 73 74 75 76 78 80 81 82 82 81
83 82 72 76 88 139 116 92 121 153 223 168 151 247 231 203 178 173 272 323 277 247 177 176 146 167 102 237 174 185 196 124 142 126 138 160 153 148 147 147 153 166 172 177 177 172 171 163 157 152 147 149 146 141 139 138 139 140 140 136 131 128 128 127 124 126 128 125 119 112 107 103 99 98 95 86 77 74 71 69 68 67 69 70 71 72 73 75 76 76 78 79 80 81 83 82 81
107 75 57 71 64 34 98 119 176 200 201 170 188 239 218 206 182 142 180 290 273 313 154 241 117 129 207 273 183 212 217 145 132 132 152 164 156 152 155 153 152 164 172 176 177 179 180 164 159 157 155 155 150 147 142 142 145 144 144 142 133 126 126 127 124 122 124 127 122 115 110 105 103 102 98 89 81 77 73 71 70 67 69 73 75 76 76 77 77 78 79 80 81 82 83 83 84
82 59 21 80 44 21 88 117 184 200 143 220 240 239 222 199 177 136 171 213 219 276 234 234 30 130 226 66 137 198 190 180 133 142 157 154 153 153 160 160 156 161 166 175 176 181 190 172 166 162 158 162 156 153 149 148 151 149 149 146 140 131 127 127 124 120 116 121 122 116 113 109 107 105 101 93 85 80 76 72 72 69 70 75 78 79 78 78 78 79 80 82 82 82 84 86 86
54 51 79 80 77 37 51 71 183 236 263 262 246 246 242 180 167 133 170 244 272 209 225 221 151 281 232 72 251 205 164 169 151 144 138 148 155 154 164 166 165 164 158 174 180 181 194 188 177 166 161 164 162 163 157 154 156 154 155 151 147 142 137 133 128 123 117 119 123 119 116 114 112 109 104 97 89 82 78 74 73 73 72 77 80 81 81 80 80 80 81 82 82 82 85 86 85
37 32 112 81 80 54 23 220 229 250 244 256 251 238 202 166 157 125 164 213 260 164 211 222 111 310 174 193 255 105 146 160 154 144 140 163 160 156 168 169 172 176 169 179 179 178 200 201 183 170 169 169 167 169 165 160 160 159 161 158 155 151 148 145 136 131 123 120 123 123 121 119 118 115 111 103 95 87 81 77 77 77 76 79 81 82 83 83 83 83 83 83 82 83 83 82 81
34 5 89 82 74 110 178 205 253 267 265 287 265 238 195 163 137 108 136 165 248 165 195 153 144 172 123 269 261 118 149 156 158 153 150 164 162 160 167 167 166 176 182 185 179 175 194 201 198 188 173 175 177 173 171 167 165 163 165 164 162 162 158 152 146 141 133 126 124 124 124 122 122 120 116 108 100 93 86 81 81 81 82 83 83 82 82 82 84 85 85 84 83 82 81 79 77
73 350 57 89 122 175 194 174 240 281 308 322 184 242 179 146 129 158 168 164 172 194 224 191 187 145 111 293 270 218 167 164 166 157 153 158 163 163 163 164 162 171 180 182 185 181 182 193 201 205 186 183 188 181 177 174 172 170 168 169 169 169 166 160 155 149 141 136 130 127 127 126 126 125 121 115 106 99 91 84 85 86 88 88 87 85 83 83 83 85 85 84 83 82 80 78 77
105 144 88 105 158 153 152 150 245 313 323 267 187 224 150 147 173 193 162 142 155 158 240 203 159 101 167 266 288 303 193 178 171 158 157 163 171 165 164 167 168 180 184 179 191 189 185 196 199 205 201 187 189 191 189 182 177 177 175 176 176 175 171 167 162 155 149 145 142 136 135 133 130 131 128 121 114 106 97 89 89 92 93 93 91 89 87 86 85 86 86 85 84 82 81 80 79
125 147 109 118 106 129 152 135 236 180 248 256 204 169 164 180 197 181 146 150 200 178 247 195 151 144 203 265 292 294 193 181 174 163 160 166 177 168 167 174 177 183 187 186 192 194 193 203 204 209 212 189 193 199 194 190 182 181 183 183 181 179 175 172 169 164 160 155 151 145 142 141 137 137 134 128 122 114 105 97 96 98 98 96 94 92 90 88 87 87 87 86 86 84 83 82 81
122 124 89 105 74 148 175 157 163 159 228 226 158 160 154 252 145 150 165 169 223 209 59 175 170 189 195 184 233 277 180 178 176 167 162 165 173 171 173 178 185 184 186 192 190 197 200 204 200 201 211 192 196 196 186 195 190 183 187 190 187 182 179 177 176 173 169 165 161 156 151 148 148 142 136 135 130 122 115 105 102 105 103 100 97 95 93 90 90 88 87 86 86 86 85 83 82
113 113 71 91 141 194 184 170 127 135 245 211 188 180 138 293 140 158 221 157 185 254 25 194 192 216 182 181 246 294 167 175 176 169 168 170 167 171 179 178 186 185 184 193 185 190 198 202 196 196 209 203 203 198 184 196 198 193 192 194 192 188 187 184 182 181 181 177 172 169 162 157 155 149 143 142 137 131 124 112 109 112 109 105 101 98 95 93 92 90 88 86 85 86 86 85 84
70 78 73 96 163 196 187 172 172 166 238 229 260 214 144 224 250 191 272 79 124 188 321 239 227 220 203 219 279 248 169 173 175 171 173 175 167 167 177 179 181 180 182 195 189 186 189 189 189 192 199 196 202 207 197 199 204 202 198 196 196 196 193 192 188 186 190 187 184 180 171 165 162 158 153 148 143 139 134 124 116 117 116 111 106 102 98 94 93 92 88 85 85 85 86 85 84
58 76 103 160 177 200 189 176 191 169 182 200 213 196 147 170 208 178 139 36 38 302 289 277 283 253 236 250 248 187 173 173 177 177 177 177 176 174 178 180 181 180 182 194 194 189 190 185 186 193 192 189 198 209 210 208 207 206 204 201 200 203 201 199 196 192 196 195 191 190 181 176 173 169 164 157 151 147 144 135 124 121 121 118 113 106 100 97 95 93 90 86 84 85 86 85 83
85 109 114 206 194 203 197 172 183 162 120 167 174 174 157 180 168 149 195 302 3 237 264 306 296 265 238 229 202 185 176 175 182 185 183 182 185 188 189 188 188 188 187 195 200 198 201 201 200 206 209 205 203 207 214 214 211 208 205 204 204 208 208 205 200 196 198 196 194 197 191 185 181 176 170 166 158 153 155 146 135 129 128 127 120 109 103 100 99 96 93 87 83 84 85 85 83
134 112 123 233 208 214 221 181 186 198 151 140 154 157 174 207 163 154 191 211 352 215 232 217 248 248 220 203 188 180 178 179 187 191 192 191 193 195 199 200 199 199 197 200 207 212 216 219 218 219 221 217 210 205 209 209 210 212 208 206 206 209 212 208 202 200 201 199 196 199 195 187 187 184 173 170 169 164 164 159 148 140 139 137 128 118 109 104 104 102 98 90 85 85 86 86 83
121 108 168 225 191 160 212 197 196 197 165 142 145 130 183 224 169 155 155 161 259 239 226 208 223 228 200 193 183 177 181 185 192 197 198 198 199 200 203 206 208 211 213 212 216 222 227 230 230 230 225 216 214 206 207 209 206 210 213 210 206 206 209 208 208 205 204 204 200 202 198 188 187 189 180 172 179 182 172 168 161 152 150 146 140 129 119 114 112 109 104 98 95 93 89 88 84
78 66 188 191 160 93 196 207 192 170 137 114 130 150 181 157 142 162 158 188 236 229 222 217 222 210 183 184 180 177 184 192 196 201 202 202 202 202 204 207 211 214 219 222 224 228 232 234 235 236 230 218 215 213 216 219 208 206 209 209 202 197 199 204 210 207 204 206 204 204 201 194 187 188 192 181 183 190 180 177 173 164 158 153 151 142 133 129 121 118 115 109 106 102 97 97 92
94 355 256 200 190 68 20 231 203 153 125 136 156 178 135 111 242 190 179 220 227 211 219 225 239 225 189 173 170 177 188 195 200 202 203 202 203 203 203 205 209 213 218 222 226 229 233 234 235 237 231 220 216 219 224 227 225 214 201 200 200 198 199 205 211 207 203 201 202 205 203 199 194 191 196 192 189 192 188 185 179 171 164 158 160 156 146 139 132 130 126 118 113 107 104 104 97
88 116 297 208 186 223 333 77 177 127 137 180 185 141 124 163 222 73 221 240 234 237 264 254 254 224 186 167 174 190 193 198 203 205 205 205 207 206 206 207 208 212 215 218 222 226 230 231 232 233 230 223 218 219 227 232 234 232 215 207 209 205 204 215 220 215 208 200 200 204 204 206 203 198 196 198 199 198 196 188 179 175 172 166 167 166 154 147 143 138 132 124 117 113 110 105 99
66 138 227 150 168 281 314 88 91 74 155 219 104 135 196 203 185 59 246 248 246 247 325 354 196 167 178 182 191 196 197 204 206 206 207 208 209 208 209 209 210 214 216 218 221 226 230 234 234 233 230 228 224 220 223 231 236 239 230 217 218 215 211 218 218 212 211 209 203 197 200 209 207 204 203 205 208 200 193 185 177 178 177 171 169 167 162 157 150 142 137 129 123 119 114 109 105
114 138 177 124 0 321 42 93 53 2 284 81 141 238 299 248 214 267 252 254 254 162 64 49 122 156 193 199 201 200 200 205 204 204 207 208 208 210 211 210 214 218 220 223 227 232 235 239 240 237 233 228 227 222 217 224 232 232 226 219 222 224 217 215 217 220 217 210 208 206 209 212 211 213 211 207 203 188 181 178 176 180 178 174 173 169 169 168 156 146 142 134 129 124 118 116 113
129 114 117 84 358 331 70 110 26 338 250 144 199 266 305 324 322 256 263 325 33 140 95 352 162 196 215 215 216 210 211 210 204 201 202 206 209 212 212 211 217 219 224 229 233 240 242 245 244 239 233 224 221 217 214 220 227 225 224 219 216 218 220 224 226 220 206 196 202 213 214 209 208 213 209 202 194 181 175 175 176 180 180 176 176 173 170 168 157 148 144 137 131 126 121 120 117
98 118 125 9 353 3 39 51 345 349 208 180 162 262 307 6 271 241 268 356 12 180 229 278 235 240 239 233 235 219 224 220 209 203 201 206 209 211 211 213 217 220 226 232 239 247 248 248 245 237 227 214 209 211 213 218 221 218 216 210 207 214 216 210 208 201 189 188 193 200 204 203 204 205 202 200 192 181 176 172 171 177 179 175 173 169 165 162 154 147 142 136 130 126 124 122 119
74 100 142 329 358 11 350 354 320 339 155 189 137 320 288 228 228 244 307 356 24 348 248 269 249 254 258 245 252 234 234 225 214 214 211 211 213 213 213 216 219 222 229 234 241 248 247 241 236 234 214 200 200 206 208 213 217 211 209 213 217 216 201 187 193 202 200 198 195 193 199 205 203 196 192 191 185 180 174 167 165 168 170 169 167 165 161 157 151 145 139 133 130 128 125 123 122
348 38 91 337 3 344 311 13 342 164 153 287 115 277 268 242 243 253 351 133 95 288 255 258 251 254 257 247 254 249 240 229 222 222 219 217 217 217 217 218 219 223 229 234 237 242 238 220 221 225 199 191 197 202 204 209 213 202 202 218 225 215 200 195 205 210 207 203 198 199 203 206 201 190 185 182 175 175 171 164 164 162 162 166 164 163 159 152 148 143 138 133 131 130 126 126 125
33 26 51 21 15 280 296 345 130 153 179 14 105 243 267 267 263 268 311 187 170 249 255 253 253 252 252 249 248 250 242 234 232 230 226 222 219 218 217 217 219 221 227 232 231 231 222 203 212 217 198 193 198 201 200 202 209 206 211 219 216 214 213 216 215 205 202 198 190 194 203 203 198 190 187 185 178 175 173 166 166 165 165 166 161 159 155 149 146 143 142 139 134 132 130 128 125
37 40 314 355 155 270 306 314 157 155 356 39 119 239 272 271 270 288 320 157 169 246 259 260 257 251 248 249 244 249 251 244 242 239 233 226 221 219 217 215 216 220 225 228 222 213 206 200 207 209 202 198 198 201 197 198 209 215 222 212 201 212 216 210 201 189 190 189 187 196 201 195 193 192 188 189 187 178 174 170 168 170 166 160 155 155 153 149 148 146 147 150 142 136 134 128 126
359 67 228 265 167 280 316 334 239 239 74 40 204 239 276 275 274 312 352 157 165 246 264 262 255 253 248 245 245 247 254 252 247 240 233 227 223 220 217 214 215 220 223 218 208 201 201 201 203 204 203 201 201 201 195 196 202 199 202 199 193 203 200 190 181 177 182 188 192 194 189 185 187 191 182 179 180 172 172 172 167 166 161 154 151 154 155 154 158 155 148 151 149 141 135 129 126
318 26 209 238 198 216 295 302 287 20 75 226 234 239 257 266 272 289 289 164 171 234 257 259 255 255 248 242 248 246 245 247 243 236 228 224 222 219 216 214 214 217 215 207 200 198 201 202 200 201 202 201 202 200 191 191 194 191 197 203 199 193 187 184 182 182 183 185 190 185 183 184 181 181 175 170 170 166 169 170 162 158 156 154 156 159 162 161 164 162 149 145 148 144 137 132 128
189 175 166 255 242 218 258 275 237 74 52 239 240 257 261 266 272 276 262 171 189 236 250 261 263 259 253 246 244 245 242 242 243 235 225 222 220 216 213 211 210 211 206 200 197 198 202 204 202 201 202 202 201 199 195 192 194 199 200 196 193 191 193 196 191 184 177 178 184 184 186 188 180 175 173 170 170 167 167 165 160 161 165 170 172 168 166 163 160 159 150 143 142 141 138 135 130
154 169 147 165 218 248 238 248 259 211 142 248 236 245 263 267 269 273 266 177 207 250 260 265 263 257 253 246 244 245 240 243 248 239 226 223 219 213 210 207 207 207 202 196 196 200 203 204 203 201 200 200 198 196 194 188 184 188 189 186 187 189 193 192 185 179 175 176 178 179 183 184 180 174 168 170 173 171 170 171 171 174 180 182 179 171 166 163 160 156 151 147 142 136 135 135 133
118 124 117 158 200 268 248 243 291 246 175 256 238 238 264 268 268 270 265 184 231 256 259 259 255 252 249 244 246 244 240 247 251 236 224 220 218 212 208 204 202 201 198 195 195 201 204 202 202 200 196 197 199 194 188 185 180 181 184 183 183 183 186 185 180 176 176 176 173 175 181 180 181 175 168 174 177 176 177 181 184 182 181 181 177 170 164 162 160 155 150 148 145 139 135 135 137
92 124 134 226 216 256 254 223 304 292 180 265 275 262 266 265 270 272 260 222 240 243 245 253 251 249 248 244 248 246 244 249 234 220 214 212 212 208 203 201 198 195 193 194 195 199 202 203 204 201 196 196 201 197 192 192 190 189 189 185 181 180 182 181 178 176 178 177 172 173 179 179 180 175 173 183 181 180 183 181 181 178 176 176 171 166 163 161 159 158 153 148 147 144 141 141 142
83 113 135 249 244 272 283 293 328 334 186 264 308 286 266 265 271 272 261 243 246 240 236 247 249 251 252 243 245 247 248 243 225 214 207 206 206 202 200 198 197 196 193 194 195 197 200 202 203 202 198 197 198 196 195 196 191 189 188 184 181 177 178 180 178 177 178 177 173 174 178 178 177 178 186 190 183 183 185 177 174 174 173 173 168 163 163 162 160 161 159 153 150 147 146 150 151
119 134 149 233 249 274 281 293 323 285 207 276 313 296 272 266 266 267 262 250 257 255 243 247 248 248 251 249 248 244 242 240 230 220 203 202 201 199 199 197 196 195 194 195 195 196 198 198 199 198 198 197 195 194 193 192 187 184 184 183 181 176 175 178 176 176 174 173 175 175 175 176 178 187 192 188 184 183 181 174 172 172 171 171 168 164 163 165 163 163 164 162 158 153 153 159 163
243 189 184 207 222 217 234 288 319 318 336 348 308 301 285 262 251 257 275 316 279 264 252 255 250 245 251 258 259 244 239 240 230 220 198 193 198 199 199 197 195 194 196 198 196 196 196 194 196 198 200 197 195 195 193 191 188 185 181 176 174 170 168 172 172 171 170 172 178 177 175 177 182 192 190 184 184 182 177 175 173 171 170 169 168 166 165 166 166 167 168 168 167 163 162 165 170
281 231 205 211 215 213 227 350 4 350 329 330 6 296 283 287 257 253 284 327 280 268 260 257 251 251 250 251 256 247 238 240 232 221 199 193 199 199 199 197 196 197 199 199 197 197 195 192 196 200 201 197 195 197 195 194 195 191 184 175 169 164 163 170 174 174 174 176 181 179 177 181 188 192 186 182 182 179 177 176 174 172 170 169 168 167 166 167 168 171 173 173 174 175 170 168 167
279 254 210 210 192 172 192 105 44 286 271 268 107 217 278 295 260 252 277 282 273 279 273 262 254 256 251 243 252 250 239 237 233 222 197 193 197 195 198 199 199 200 200 198 197 196 195 193 195 199 201 198 196 198 199 199 198 193 189 186 185 181 176 178 180 182 182 182 182 181 182 186 189 188 183 181 181 179 178 176 175 174 172 170 170 169 168 169 171 173 177 179 180 181 178 173 169
240 255 159 164 161 176 186 153 179 238 275 274 149 139 281 286 253 250 271 273 278 283 274 268 258 250 253 251 252 250 241 231 220 217 200 194 197 196 199 201 201 200 197 195 195 195 197 195 194 197 200 200 200 200 202 202 199 194 191 191 192 190 186 184 183 184 184 184 182 183 186 187 185 184 182 181 181 180 179 177 177 176 173 172 172 171 171 172 174 176 179 184 186 186 187 183 174
247 207 120 131 145 159 136 124 177 308 346 298 202 144 240 277 269 266 263 263 274 275 268 269 265 253 253 254 253 252 247 230 214 212 203 198 199 200 203 201 200 199 195 194 194 195 197 197 196 197 199 202 202 201 203 204 201 196 194 194 191 188 187 185 182 183 183 183 183 184 187 184 181 181 181 181 181 180 180 180 179 177 175 174 173 173 173 174 177 180 182 186 188 187 190 190 178
205 133 99 82 82 82 88 110 121 64 327 264 185 164 198 275 269 211 168 256 257 258 264 269 272 267 255 254 257 260 259 236 220 215 205 201 202 203 202 199 197 196 195 195 194 193 195 195 195 195 198 202 202 201 202 203 201 197 195 195 192 188 187 183 179 179 180 182 183 183 184 182 180 181 181 180 180 180 180 181 180 179 176 174 174 175 175 176 179 181 182 184 185 182 180 181 176
140 114 79 60 47 41 59 58 76 78 285 265 185 186 185 273 271 204 204 225 221 231 257 272 278 279 261 256 262 261 258 242 220 216 205 198 201 201 197 196 195 194 194 193 193 194 193 193 195 195 198 201 202 201 201 202 202 200 198 197 195 191 188 182 177 176 179 181 182 182 182 182 181 181 180 180 179 180 181 181 180 179 177 176 176 177 177 177 177 178 178 178 179 178 173 172 171
109 96 90 78 2 8 29 351 43 134 249 275 210 212 185 240 254 239 247 259 235 215 229 254 265 271 265 257 259 259 251 236 209 195 188 178 185 190 192 193 192 190 190 190 191 193 193 194 195 195 197 200 202 201 201 202 203 202 201 199 198 195 189 183 181 181 183 184 183 182 181 182 181 180 180 180 180 181 182 181 180 179 178 178 178 177 177 176 174 173 173 174 174 173 170 169 166
90 102 111 103 330 347 342 287 141 219 247 236 140 186 233 245 252 258 264 266 250 224 223 240 248 259 265 259 246 251 242 219 203 190 188 181 180 186 189 190 189 188 189 189 190 193 193 195 196 195 196 200 202 202 201 202 203 203 202 201 199 196 190 186 186 187 188 188 187 185 183 182 181 180 181 182 182 182 182 181 180 180 180 178 177 175 174 173 173 172 172 172 171 167 165 163 158
158 148 142 138 150 203 250 259 268 266 265 242 163 170 243 269 264 244 244 249 248 233 233 241 245 252 261 264 244 226 223 219 213 206 199 198 196 192 190 189 188 188 189 189 191 193 194 195 196 195 196 199 202 202 201 201 203 203 202 202 201 196 191 190 192 193 191 190 190 189 186 184 183 182 182 183 183 182 182 181 182 182 179 176 175 174 172 172 172 171 170 168 164 160 157 153 150
182 159 139 159 170 179 214 219 213 253 280 284 234 190 203 222 259 242 238 255 267 259 254 259 263 257 259 272 265 235 233 227 217 218 214 209 202 195 192 191 190 190 190 190 192 193 194 195 196 196 196 198 201 201 201 201 202 202 202 202 200 197 195 194 196 198 195 192 191 190 188 186 185 184 183 183 183 182 181 182 182 181 178 176 175 174 173 172 172 170 167 165 159 155 153 151 148
207 122 118 196 195 154 167 203 179 185 314 303 250 227 215 211 271 269 249 266 274 271 276 276 268 262 259 267 260 238 240 233 216 224 225 216 204 197 194 192 192 191 190 192 193 194 195 196 197 198 199 200 200 201 201 203 203 203 202 202 199 197 197 197 197 198 197 194 193 191 189 187 186 185 185 185 184 183 183 182 181 179 177 176 176 176 175 174 172 171 168 165 160 156 156 155 151
161 144 177 213 177 121 111 238 121 85 257 273 236 250 278 313 282 264 244 260 272 278 276 259 256 262 263 265 256 231 234 228 220 226 222 210 201 199 199 195 193 193 192 194 195 195 196 197 197 198 200 200 200 202 202 203 203 203 202 201 200 199 199 199 199 199 199 195 193 192 189 187 187 186 186 186 185 183 183 183 181 179 178 177 177 178 177 176 174 174 172 170 166 162 161 160 156
130 182 204 169 107 101 111 207 350 43 248 270 264 251 279 301 278 288 272 260 263 261 258 254 259 264 262 266 255 220 220 221 226 232 217 204 201 200 201 200 198 196 195 196 197 197 197 198 199 198 198 200 201 203 203 202 202 202 201 201 201 202 202 202 203 204 202 197 193 191 189 188 188 188 188 187 186 185 184 183 182 180 179 179 179 179 179 178 178 177 177 176 171 165 165 162 160
132 188 190 125 157 203 121 164 200 222 242 275 290 283 272 224 235 274 223 228 241 248 252 255 260 258 255 263 254 216 214 229 230 229 215 205 202 200 199 200 201 200 199 199 198 198 198 199 201 200 201 203 203 203 202 201 201 202 203 204 204 204 204 204 205 206 203 198 194 192 190 189 189 189 189 188 187 186 184 184 184 183 181 181 181 180 180 180 181 182 182 179 174 170 170 166 162
66 103 131 115 174 181 166 159 173 198 218 259 303 316 277 225 201 199 214 219 223 235 245 247 250 249 242 250 249 220 216 229 226 220 217 207 200 201 199 199 201 200 200 200 198 198 199 199 201 202 203 203 203 201 201 201 202 203 205 206 205 204 205 206 207 207 204 199 196 193 191 190 190 190 190 189 189 188 186 186 185 185 184 183 182 181 181 182 185 187 186 184 178 175 177 174 167
159 174 177 192 183 125 180 179 128 150 166 201 284 299 273 250 177 186 215 223 220 220 230 235 237 244 245 242 236 226 224 229 227 216 210 204 198 200 201 200 201 200 199 199 199 199 200 200 201 202 202 201 201 201 201 203 204 205 206 207 205 204 205 207 208 208 206 201 197 194 192 192 192 191 191 190 190 189 189 188 188 188 187 185 184 182 183 185 187 189 190 188 184 181 183 181 176
182 190 195 196 182 149 184 228 204 126 140 181 175 264 273 260 158 190 213 215 219 215 227 244 238 233 246 253 233 224 227 232 229 211 197 194 192 193 195 197 196 197 198 199 200 200 200 201 202 202 203 202 202 201 202 204 205 206 207 207 207 206 206 207 208 208 205 201 197 194 193 193 193 192 192 192 192 191 190 191 190 191 190 188 186 185 186 187 189 193 194 192 190 189 189 188 186